Home   Weather   Redmond   Past weeks

Flag for USA Past Weather in Redmond, Washington, USA — Yesterday and Last 2 Weeks

Now
62 °F

Drizzle. Mostly cloudy.


Feels Like: 62 °F
Forecast: 58 / 75 °F
Wind: 5 mph from South

Location: Seattle Boeing Field

Current Time: Aug 17, 2017 at 6:50:43 am

Latest Report: Aug 17, 2017 at 5:53 am


Visibility: 10 mi

Pressure: 30.14 "Hg

Humidity: 86%

Dew Point: 58 °F

Location of RedmondLocation

Past Weather in Redmond — Graph

°F

Redmond Temperature Yesterday

Maximum temperature yesterday: 80 °F (at 4:53 pm)
Minimum temperature yesterday: 59 °F (at 5:53 am)
Average temperature yesterday: 69 °F

High & Low Weather Summary for the Past Weeks

 TemperatureHumidityPressure
High93 °F (Aug 4, 3:53 pm)100% (Aug 13, 6:53 am)30.14 "Hg (Aug 13, 6:53 am)
Low57 °F (Aug 15, 3:53 am)28% (Aug 4, 3:53 pm)29.79 "Hg (Aug 4, 6:53 pm)
Average71 °F67%29.95 "Hg
* Reported Aug 2 5:53 am — Aug 17 5:33 am, Redmond. Weather by CustomWeather, © 2017

Note: Actual official high and low records may vary slightly from our data, if they occured in-between our weather recording intervals... More about our weather records

Advertising

Redmond Weather History for the Previous 24 Hours

Scroll right to see more
 ConditionsComfort  
Time TempWeatherWind HumidityBarometerVisibility
5:33 am
Thu, Aug 17
63 °FDrizzle. Mostly cloudy.5 mph87%30.14 "Hg10 mi
4:53 am63 °FOvercast.5 mph84%30.14 "Hg10 mi
3:53 am64 °FOvercast.5 mph84%30.13 "Hg10 mi
2:53 am65 °FOvercast.3 mph85%30.11 "Hg10 mi
1:53 am65 °FOvercast.5 mph85%30.11 "Hg10 mi
12:53 am66 °FPassing clouds.5 mph84%30.11 "Hg10 mi
11:53 pm
Wed, Aug 16
67 °FPartly cloudy.No wind81%30.11 "Hg10 mi
10:53 pm69 °FPassing clouds.5 mph76%30.09 "Hg10 mi
9:53 pm70 °FPassing clouds.3 mph71%30.08 "Hg10 mi
8:53 pm73 °FOvercast.5 mph57%30.06 "Hg10 mi
7:53 pm73 °FScattered clouds.5 mph51%30.04 "Hg10 mi
6:53 pm77 °FPassing clouds.7 mph44%30.04 "Hg10 mi
5:53 pm80 °FPassing clouds.6 mph39%30.05 "Hg10 mi
4:53 pm80 °FPassing clouds.5 mph38%30.06 "Hg10 mi
3:53 pm79 °FPassing clouds.5 mph39%30.07 "Hg10 mi
2:53 pm77 °FScattered clouds.5 mph42%30.09 "Hg10 mi
1:53 pm75 °FScattered clouds.3 mph48%30.09 "Hg10 mi
12:53 pm72 °FMostly cloudy.5 mph52%30.10 "Hg10 mi
11:53 am71 °FPartly sunny.No wind53%30.10 "Hg10 mi
10:53 am68 °FScattered clouds.5 mph59%30.10 "Hg10 mi
9:53 am67 °FScattered clouds.3 mph63%30.10 "Hg10 mi
8:53 am63 °FSunny.5 mph68%30.09 "Hg10 mi
7:53 am61 °FSunny.7 mph75%30.10 "Hg10 mi
6:53 am59 °FSunny.No wind78%30.09 "Hg10 mi
Weather by CustomWeather, © 2017

See weather overviewHow to use our weather pages